Regional Weather Roundup
Issued by NWS

Home | Current Version | Previous Version | Text Only | Print | Product List | Glossary On
Versions: 1 2 3 4 5 6 7 8 9 10 11 12 13 14 15 16 17 18 19 20 21 22 23 24 25 26 27
000
ASUS45 KTFX 180110
RWRMT
MONTANA REGIONAL WEATHER ROUNDUP
NATIONAL WEATHER SERVICE GREAT FALLS MT
600 PM MST FRI NOV 17 2017

NOTE: "FAIR" INDICATES FEW OR NO CLOUDS BELOW 12000 FEET WITH NO
SIGNIFICANT WEATHER AND/OR OBSTRUCTIONS TO VISIBILITY.

MTZ001>007-043-180200-
WEST OF THE DIVIDE

CITY           SKY/WX    TMP DP  RH WIND       PRES   REMARKS
KALISPELL      MOCLDY    34  27  75 SW10      29.98R WCI  26
MISSOULA       FAIR      34  25  69 NW12      30.04R WCI  25
BUTTE          FAIR      27  13  55 NW7       29.95R WCI  19
MULLAN PASS    LGT SNOW  22  19  89 W8        29.96  FOG     WCI  12
ANACONDA         N/A     30  16  55 SW9G18    29.97R WCI  22
EUREKA           N/A     37  21  52 MISG      29.96R
HAMILTON         N/A     36  21  55 SE12G17   30.06R WCI  27
LIBBY            N/A     36  28  75 S8        29.99R WCI  29
PLAINS           N/A     38  27  65 S20       30.04R WCI  28
RONAN            N/A     36  24  62 SW2       30.06
$$

MTZ008-052>055-180200-
SOUTHWEST MONTANA

CITY           SKY/WX    TMP DP  RH WIND       PRES   REMARKS
BOZEMAN        FAIR      29  21  72 S5        29.95R
DILLON         FAIR      28  10  46 SW10      29.98R WCI  19
W YELLOWSTONE  MOCLDY    25   9  50 NW9G16    29.92R WCI  15
ENNIS          PTCLDY    28  10  47 NW8       30.00R WCI  20
TWIN BRIDGES     N/A     30  11  45 CALM      29.97
$$

MTZ009-010-012-014-046-048-049-054-180200-
EAST SLOPES AND CENTRAL MONTANA

CITY           SKY/WX    TMP DP  RH WIND       PRES   REMARKS
CUT BANK       FAIR      28  22  78 W15       29.78R WCI  16
GREAT FALLS    FAIR      32  17  54 W16       29.82R WCI  21
MALMSTROM AFB  FAIR      36  17  47 W13       29.83R WCI  27
HELENA         FAIR      35  19  52 W29G43    29.89R WCI  22
BOWMANS CRNR   FAIR      30  17  57 W17       29.82R WCI  18
CHOTEAU          N/A     36  14  41 W22G32    29.80R WCI  24
FAIRFIELD      FAIR      31  22  68 W18       29.81R WCI  19
POWER          FAIR      30  19  63 W15       29.81R WCI  19
RAYNESFORD     FAIR      34  18  51 W16       29.82R WCI  23
ULM            FAIR      33  20  58 SW15      29.84R WCI  22
$$

MTZ011-013-016-021-045-047-050-051-180200-
NORTH CENTRAL MONTANA

CITY           SKY/WX    TMP DP  RH WIND       PRES   REMARKS
HAVRE          FAIR      27  23  85 NW12      29.77R WCI  17
LEWISTOWN      FAIR      32  18  56 W9        29.80R WCI  24
N BAR RANCH    FAIR      34  14  44 NW13G20   29.80R WCI  25
CHINOOK          N/A     27  21  80 NW7       29.77R WCI  19
DENTON         FAIR      35  20  54 W15       29.77R WCI  25
GEYSER         FAIR      32  19  58 W20       29.80R WCI  20
GRASS RANGE    FAIR      36  17  47 W18G25    29.76R WCI  25
STANFORD       FAIR      32  15  49 W18G26    29.79R WCI  21
WINIFRED       MOCLDY    36  19  49 W12       29.78R WCI  27
$$

MTZ017>020-022>027-061-062-180200-
NORTHEAST MONTANA

CITY           SKY/WX    TMP DP  RH WIND       PRES   REMARKS
GLASGOW        FAIR      30  24  78 W6        29.73R WCI  24
GLENDIVE       FAIR      34  23  64 NW12      29.73R WCI  25
JORDAN           N/A     28  23  81 NW7       29.74R WCI  21
SIDNEY         FAIR      29  24  82 NW8       29.72R WCI  21
WOLF POINT     FAIR      28  20  71 W8        29.72R WCI  20
MALTA          PTCLDY    27  23  86 W3        29.75R
PLENTYWOOD       N/A     14   9  79 N13       29.73R WCI   0
POPLAR           N/A     34  23  64 CALM      29.73R
$$

MTZ028>42-056>058-180200-
SOUTHCENTRAL AND SOUTHEAST MONTANA

CITY           SKY/WX    TMP DP  RH WIND       PRES   REMARKS
BAKER          MOCLDY    38  32  79 NW14      29.71R WCI  30
BILLINGS       FAIR      37  20  50 W18       29.83R WCI  27
LIVINGSTON     FAIR      31  22  69 W21       29.89R WCI  18
MILES CITY     FAIR      36  26  67 W12       29.75R WCI  28
BIG TIMBER     CLEAR     30  21  69 W21       29.91R WCI  17
FORSYTH          N/A     37  23  56 CALM      29.77R
HARLOWTON      FAIR      31  19  61 W29G35    29.82R WCI  16
LAUREL           N/A     36  19  51 NW12      29.86R WCI  27
ROUNDUP          N/A     36  18  48 W15       29.73R WCI  27
$$

REGIONAL REPORTS...DAKOTAS

CITY           SKY/WX    TMP DP  RH WIND       PRES   REMARKS
WILLISTON      CLOUDY    28  21  75 CALM      29.71R
MINOT          FAIR      18  12  77 CALM      29.73R
DICKINSON      FAIR      28  22  78 S7        29.67R WCI  21
BEACH          FAIR      34  30  86 NW10      29.73R WCI  26
CROSBY         FAIR      12   9  85 N6        29.77R WCI   3
TIOGA          FAIR      25  23  93 E3        29.71R
WATFORD CITY   MOCLDY    25  19  80 N3        29.70R
BISMARCK       FAIR      29  23  78 N5        29.74R
GRAND FORKS    MOCLDY    19  15  84 NW3       29.76R
FARGO          FAIR      27  19  72 N8        29.74R WCI  19
BUFFALO SD       N/A     35  30  82 W6        29.64R WCI  30
RAPID CITY     MOCLDY    38  36  92 N5        29.72R
$$

REGIONAL REPORTS...WYOMING/IDAHO/WASHINGTON

CITY           SKY/WX    TMP DP  RH WIND       PRES   REMARKS
GILLETTE       CLOUDY    34  32  92 W17G25    29.76R WCI  23
SHERIDAN       FAIR      34  31  88 CALM      29.82R
BUFFALO WY     CLOUDY    32  27  81 N8        29.78R WCI  25
CODY           FAIR      32  19  58 W9        29.86R WCI  24
YELLOWSTONE LA   N/A     16  12  84 VRB6      29.91R WCI   7
IDAHO FALLS    FAIR      33  23  66 W6        30.04R WCI  28
BOISE          FAIR      40  23  50 NW7       30.19R
SPOKANE        FAIR      39  28  64 SW16      30.06R WCI  30
$$

REGIONAL REPORTS...ALBERTA

CITY           SKY/WX    TMP DP  RH WIND       PRES   REMARKS
EDMONTON       CLEAR      1  -2  85 SW6       29.84R WCI -10
CALGARY        CRYSTALS   7   3  85 W2        29.78R
LETHBRIDGE     CLEAR      7   3  85 NE5       29.83R
MEDICINE HAT   PTCLDY     9   5  85 N9        29.87R WCI  -5
$$

REGIONAL REPORTS...SASKATCHEWAN

CITY           SKY/WX    TMP DP  RH WIND       PRES   REMARKS
SWIFT CURRENT  CLOUDY     7   3  85 NW9       29.79R WCI  -7
REGINA         FLURRIES   9   5  85 W8        29.79R WCI  -4
SASKATOON      CLOUDY     9   1  72 NW10      29.83R WCI  -6
$$




USA.gov is the U.S. government's official web portal to all federal, state and local government web resources and services.